{"data":{"norad_id":64318,"intl_designator":"2025-124B","name":"STARLINK-11673 [DTC]","alt_names":[],"object_type":"PAYLOAD","status":"ACTIVE","operator":null,"country":"US","launch_date":"2025-06-10","launch_site_code":"AFETR","launch_vehicle":null,"mission":null,"orbit_class":"UNKNOWN","rcs_meters":null,"size_class":null,"mass_kg":null,"dimensions":null,"purposes":["comms"],"wikipedia_slug":null,"has_3d_model":false,"image_url":null,"decayed_at":null,"tle_current":{"epoch":"2026-05-25T02:40:43.521312Z","epoch_age_seconds":59329,"freshness":"FRESH","line1":"1 64318U 25124B   26145.11161483  .00204459  00000+0  15552-2 0  9992","line2":"2 64318  43.0007 288.5627 0001079  45.4530 314.6426 15.70883419 54858","mean_motion":15.70883419,"eccentricity":0.0001079,"inclination_deg":43.0007,"raan_deg":288.5627,"arg_perigee_deg":45.453,"mean_anomaly_deg":314.6426,"bstar":0.0015552,"rev_number":5485,"period_min":91.668164714392,"perigee_km":355.64431138958,"apogee_km":357.09761820838,"semimajor_km":6734.507964799,"source":"CELESTRAK","updated_at":"2026-05-25T13:38:20.393133Z"}}}